Location: ??????
(56.0120°N, 39.1740°E)
Time: 01:20:37
(UTC+00:00)

Cosmos 2058 Rocket - Pass Details

Date: 14 April 2026
Orbit: 603 x 633 km, 82.5° (Epoch: 20 May)

Event Time Altitude Azimuth Distance (km) Brightness Sun altitude
Exits shadow 23:33:37 23° 158° (SSE) 1,328 4.4 -19.0°
Maximum altitude 23:36:03 48° 95° (E) 824 3.8 -18.8°
Drops below altitude 10° 23:40:20 10° 21° (NNE) 2,010 6.8 -18.4°
Sets 23:42:37 0° 16° (NNE) 2,916 7.8 -18.2°
